EA3FHP Weather Reports


time (UTC)temp
C
wind
direction
speed
KPH
gust
KPH
rain 1hr
cm
rain 24hr
cm
rain mn
cm
humidity
%
barometer
mb
20260504174003 15 0 0.0 0.0 0.00 0.43 0.38 87 1011.8
20260504173003 15 0 0.0 0.0 0.00 0.43 0.38 86 1011.7
20260504172003 15 315 0.0 3.2 0.00 0.43 0.38 86 1012.0
20260504171003 15 331 1.6 4.8 0.00 0.43 0.38 85 1011.9
20260504151003 13 204 1.6 6.4 0.38 0.46 0.38 89 1012.5
20260503211003 13 225 0.0 3.2 0.00 0.03 0.03 87 1016.3
20260503210005 13 0 0.0 0.0 0.00 0.03 0.03 87 1016.3
20260503205003 13 0 0.0 0.0 0.00 0.03 0.03 86 1016.2
20260503204003 13 0 0.0 0.0 0.00 0.03 0.03 87 1016.4
20260503203003 13 0 0.0 0.0 0.00 0.03 0.03 87 1016.4
20260503202004 13 225 0.0 3.2 0.00 0.03 0.03 87 1016.4
20260503201003 13 225 0.0 3.2 0.00 0.03 0.03 87 1016.3
20260503200004 13 0 0.0 0.0 0.00 0.03 0.03 87 1016.1
20260503195003 13 0 0.0 0.0 0.00 0.03 0.03 86 1015.9
20260503194004 13 180 0.0 3.2 0.00 0.03 0.03 86 1016.0
20260503193004 13 180 0.0 3.2 0.00 0.03 0.03 86 1015.8
20260503192003 13 0 0.0 0.0 0.00 0.03 0.03 87 1015.8
20260503191004 13 0 0.0 0.0 0.00 0.03 0.03 87 1015.6
20260503190004 13 0 0.0 0.0 0.00 0.03 0.03 87 1015.7
20260503185004 13 180 0.0 3.2 0.00 0.03 0.03 87 1015.5
20260503184003 13 0 0.0 0.0 0.00 0.03 0.03 88 1015.5
20260503183004 13 0 0.0 0.0 0.00 0.03 0.03 88 1015.5
20260503182004 13 225 0.0 6.4 0.00 0.03 0.03 88 1015.4
20260503181004 13 224 0.0 6.4 0.00 0.03 0.03 87 1015.3
20260503180004 13 180 0.0 3.2 0.00 0.03 0.03 88 1015.5
20260503175004 13 180 0.0 3.2 0.00 0.03 0.03 88 1015.5